Year,Month,Day,Hour,Minute,Value (Times are PST for temperature in C)
2010,10,18,09,12,8.50
2010,10,18,09,13,8.50
2010,10,18,09,14,8.50
2010,10,18,09,15,8.60
2010,10,18,09,16,8.60
2010,10,18,09,17,8.60
2010,10,18,09,18,8.70
2010,10,18,09,19,8.70
2010,10,18,09,20,8.70
2010,10,18,09,21,8.80
2010,10,18,09,22,8.90
2010,10,18,09,23,8.90
2010,10,18,09,24,9.00
2010,10,18,09,25,9.00
2010,10,18,09,26,9.10
2010,10,18,09,27,9.20
2010,10,18,09,28,9.20
2010,10,18,09,29,9.20
2010,10,18,09,30,9.30
2010,10,18,09,31,9.40
2010,10,18,09,32,9.50
2010,10,18,09,33,9.50
2010,10,18,09,34,9.60
2010,10,18,09,35,9.60
2010,10,18,09,36,9.70
2010,10,18,09,37,9.70
2010,10,18,09,38,9.70
2010,10,18,09,39,9.80
2010,10,18,09,40,9.80
2010,10,18,09,41,9.80
2010,10,18,09,42,9.80
2010,10,18,09,43,9.90
2010,10,18,09,44,9.90
2010,10,18,09,45,9.90
2010,10,18,09,46,9.90
2010,10,18,09,47,9.90
2010,10,18,09,48,10.00
2010,10,18,09,49,10.10
2010,10,18,09,50,10.10
2010,10,18,09,51,10.10
2010,10,18,09,52,10.10
2010,10,18,09,53,10.10
2010,10,18,09,54,10.10
2010,10,18,09,55,10.10
2010,10,18,09,56,10.20
2010,10,18,09,57,10.20
2010,10,18,09,58,10.20
2010,10,18,09,59,10.30
2010,10,18,10,00,10.30
2010,10,18,10,01,10.30
2010,10,18,10,02,10.40
2010,10,18,10,03,10.40
2010,10,18,10,04,10.40
2010,10,18,10,05,10.40
2010,10,18,10,06,10.40
2010,10,18,10,07,10.40
2010,10,18,10,08,10.40
2010,10,18,10,09,10.40
2010,10,18,10,10,10.40
2010,10,18,10,11,10.40
2010,10,18,10,12,10.40
2010,10,18,10,13,10.40
2010,10,18,10,14,10.40
2010,10,18,10,15,10.40
2010,10,18,10,16,10.40
2010,10,18,10,17,10.50
2010,10,18,10,18,10.60
2010,10,18,10,19,10.60
2010,10,18,10,20,10.60
2010,10,18,10,21,10.60
2010,10,18,10,22,10.60
2010,10,18,10,23,10.60
2010,10,18,10,24,10.70
2010,10,18,10,25,10.70
2010,10,18,10,26,10.70
2010,10,18,10,27,10.80
2010,10,18,10,28,10.80
2010,10,18,10,29,10.80
2010,10,18,10,30,10.80
2010,10,18,10,31,10.80
2010,10,18,10,32,10.90
2010,10,18,10,33,10.90
2010,10,18,10,34,10.90
2010,10,18,10,35,10.90
2010,10,18,10,36,10.90
2010,10,18,10,37,10.90
2010,10,18,10,38,10.90
2010,10,18,10,39,10.90
2010,10,18,10,40,10.90
2010,10,18,10,41,10.90
2010,10,18,10,42,10.90
2010,10,18,10,43,10.90
2010,10,18,10,44,10.80
2010,10,18,10,45,10.80
2010,10,18,10,46,10.80
2010,10,18,10,47,10.90
2010,10,18,10,48,10.90
2010,10,18,10,49,10.90
2010,10,18,10,50,10.90
2010,10,18,10,51,10.90
2010,10,18,10,52,10.90
2010,10,18,10,53,10.90
2010,10,18,10,54,10.90
2010,10,18,10,55,10.80
2010,10,18,10,56,10.80
2010,10,18,10,57,10.80
2010,10,18,10,58,10.80
2010,10,18,10,59,10.80
2010,10,18,11,00,10.70
2010,10,18,11,01,10.70
2010,10,18,11,02,10.70
2010,10,18,11,03,10.70
2010,10,18,11,04,10.70
2010,10,18,11,05,10.70
2010,10,18,11,06,10.70
2010,10,18,11,07,10.70
2010,10,18,11,08,10.80
2010,10,18,11,09,10.80
2010,10,18,11,10,10.80
2010,10,18,11,11,10.90
2010,10,18,11,12,10.90
2010,10,18,11,13,10.90
2010,10,18,11,14,10.90
2010,10,18,11,15,10.90
2010,10,18,11,16,10.90
2010,10,18,11,17,10.90
2010,10,18,11,18,10.90
2010,10,18,11,19,10.90
2010,10,18,11,20,10.90
2010,10,18,11,21,10.90
2010,10,18,11,22,10.90
2010,10,18,11,23,10.90
2010,10,18,11,24,10.90
2010,10,18,11,25,10.90
2010,10,18,11,26,10.90
2010,10,18,11,27,10.90
2010,10,18,11,28,10.90
2010,10,18,11,29,10.90
2010,10,18,11,30,10.90
2010,10,18,11,31,10.90
2010,10,18,11,32,10.90
2010,10,18,11,33,10.90
2010,10,18,11,34,10.90
2010,10,18,11,35,10.90
2010,10,18,11,36,10.90
